Weather History for KCSM - August, 2013

Change the Weather History Date:

Tuesday, August 20, 2013

  Actual Average Record
Temperature  
Mean Temperature 82 °F -  
Max Temperature 96 °F 92 °F 102 °F (2010)
Min Temperature 69 °F 68 °F 57 °F (2012)
Cooling Degree Days 17    
Growing Degree Days 32 (Base 50)    
Moisture  
Dew Point 60 °F    
Average Humidity 50    
Maximum Humidity 73    
Minimum Humidity 30    
Precipitation  
Precipitation 0.00 in - - ()
Sea Level Pressure  
Sea Level Pressure 29.96 in    
Wind  
Wind Speed 12 mph (SE)    
Max Wind Speed 20 mph    
Max Gust Speed 28 mph    
Visibility 10 miles    
Events      
Averages and records for this station are not official NWS values.
T = Trace of Precipitation, MM = Missing Value Source: NWS Daily Summary

Daily Weather History Graph

Daily Weather History Graph

Search for Another Location

Airport or City:

Trip Planner

Search our weather history database for the weather conditions in past years. The results will help you decide how hot, cold, wet, or windy it might be!

Date:

Astronomy

Aug. 20, 2013 Rise Set
Actual Time 7:00 AM CDT 8:19 PM CDT
Civil Twilight 6:33 AM CDT 8:45 PM CDT
Nautical Twilight 6:01 AM CDT 9:17 PM CDT
Astronomical Twilight 5:28 AM CDT 9:50 PM CDT
Moon 7:54 PM CDT (8/20) 6:31 AM CDT (8/20)
Length of Visible Light 14h 12m
Length of Day
13h 18m
Full, 100% of the Moon is Illuminated
Aug 20
Full
Aug 20
Full
Aug 28
Last Quarter
Sep 5
New
Sep 12
First Quarter

Hourly Weather History & Observations

Time (CDT) Temp. Heat Index Dew Point Humidity Pressure Visibility Wind Dir Wind Speed Gust Speed Precip Events Conditions
12:53 AM 75.0 °F - 63.0 °F 66% 29.97 in 10.0 mi SE 10.4 mph - N/A   Clear
1:53 AM 73.9 °F - 61.0 °F 64% 29.96 in 10.0 mi SE 10.4 mph - N/A   Clear
2:53 AM 73.0 °F - 61.0 °F 66% 29.96 in 10.0 mi SE 9.2 mph - N/A   Clear
3:53 AM 71.1 °F - 61.0 °F 70% 29.96 in 10.0 mi SE 6.9 mph - N/A   Clear
4:53 AM 70.0 °F - 61.0 °F 73% 29.96 in 10.0 mi SE 6.9 mph - N/A   Clear
5:53 AM 69.1 °F - 60.1 °F 73% 29.97 in 10.0 mi SE 8.1 mph - N/A   Clear
6:53 AM 70.0 °F - 59.0 °F 68% 29.98 in 10.0 mi SSE 9.2 mph - N/A   Clear
7:53 AM 71.1 °F - 59.0 °F 66% 29.99 in 10.0 mi SSE 9.2 mph - N/A   Clear
8:53 AM 75.0 °F - 59.0 °F 57% 30.00 in 10.0 mi SSE 13.8 mph - N/A   Clear
9:53 AM 81.0 °F 81.6 °F 60.1 °F 49% 30.00 in 10.0 mi SSE 17.3 mph - N/A   Clear
10:53 AM 86.0 °F 85.4 °F 59.0 °F 40% 30.00 in 10.0 mi SSE 18.4 mph - N/A   Clear
11:53 AM 89.1 °F 88.8 °F 60.1 °F 38% 29.99 in 10.0 mi South 17.3 mph - N/A   Clear
12:53 PM 91.0 °F 90.2 °F 59.0 °F 34% 29.97 in 10.0 mi SSE 15.0 mph 25.3 mph N/A   Clear
1:53 PM 93.0 °F 92.3 °F 59.0 °F 32% 29.95 in 10.0 mi SSE 16.1 mph 25.3 mph N/A   Clear
2:53 PM 95.0 °F 94.4 °F 59.0 °F 30% 29.94 in 10.0 mi SSE 18.4 mph 26.5 mph N/A   Clear
3:53 PM 95.0 °F 94.4 °F 59.0 °F 30% 29.92 in 10.0 mi South 16.1 mph - N/A   Clear
4:53 PM 93.9 °F 93.6 °F 60.1 °F 32% 29.92 in 10.0 mi SSE 16.1 mph 27.6 mph N/A   Clear
5:53 PM 93.0 °F 92.7 °F 60.1 °F 33% 29.92 in 10.0 mi SE 19.6 mph 25.3 mph N/A   Clear
6:53 PM 91.0 °F 90.5 °F 60.1 °F 35% 29.92 in 10.0 mi SE 19.6 mph - N/A   Clear
7:53 PM 88.0 °F 87.6 °F 60.1 °F 39% 29.92 in 10.0 mi SE 11.5 mph - N/A   Clear
8:53 PM 82.9 °F 83.3 °F 61.0 °F 47% 29.94 in 10.0 mi SE 10.4 mph - N/A   Clear
9:53 PM 81.0 °F 81.6 °F 60.1 °F 49% 29.96 in 10.0 mi SE 10.4 mph - N/A   Clear
10:53 PM 80.1 °F 80.7 °F 59.0 °F 48% 29.97 in 10.0 mi ESE 9.2 mph - N/A   Clear
11:53 PM 77.0 °F - 61.0 °F 58% 29.97 in 10.0 mi SE 9.2 mph - N/A   Clear